OEUDI EDDG-ZZZZ

Flight info

Callsign OEUDI
Flight time N/A
Altitude
Route
Aircraft DA40

Departure

Time 2026-04-29 15:06
Airport Münster Osnabrück Airport (EDDG)

Arrival

Time N/A
Airport ZZZZ
Time Latitude Longitude Altitude Speed Heading
2026-04-29 15:03 52.13158 7.68238 163 ft 0 kts 90°
2026-04-29 15:04 52.13158 7.68250 163 ft 7 kts 88°
2026-04-29 15:04 52.13181 7.68277 163 ft 5 kts 12°
2026-04-29 15:04 52.13196 7.68324 164 ft 0 kts 70°
2026-04-29 15:04 52.13196 7.68326 164 ft 2 kts 70°
2026-04-29 15:05 52.13253 7.68326 164 ft 16 kts 342°
2026-04-29 15:05 52.13340 7.68274 164 ft 10 kts 343°
2026-04-29 15:05 52.13408 7.68253 163 ft 6 kts 32°
2026-04-29 15:05 52.13428 7.68308 164 ft 7 kts 71°
2026-04-29 15:06 52.13458 7.68440 164 ft 28 kts 70°
2026-04-29 15:06 52.13564 7.68994 202 ft 65 kts 70°
2026-04-29 15:06 52.13723 7.69692 469 ft 60 kts 66°
2026-04-29 15:06 52.13797 7.70295 770 ft 61 kts 116°
2026-04-29 15:07 52.13331 7.70608 859 ft 87 kts 158°
2026-04-29 15:07 52.12700 7.70743 964 ft 95 kts 163°
2026-04-29 15:07 52.11992 7.70777 1090 ft 100 kts 166°
2026-04-29 15:07 52.11341 7.70869 1548 ft 69 kts 161°
2026-04-29 15:08 52.10633 7.70591 1247 ft 130 kts 194°
2026-04-29 15:08 52.09791 7.70043 1327 ft 130 kts 195°
2026-04-29 15:08 52.08952 7.69595 1397 ft 125 kts 186°
2026-04-29 15:08 52.08140 7.69300 1634 ft 115 kts 183°
2026-04-29 15:09 52.07399 7.69026 1835 ft 115 kts 184°
2026-04-29 15:09 52.06579 7.68752 1817 ft 128 kts 183°
2026-04-29 15:09 52.05678 7.68426 1800 ft 135 kts 187°
2026-04-29 15:09 52.04801 7.68071 1933 ft 124 kts 186°
2026-04-29 15:10 52.03985 7.67409 1916 ft 137 kts 200°
2026-04-29 15:10 52.03139 7.66861 2089 ft 127 kts 188°
2026-04-29 15:10 52.02221 7.66411 1553 ft 139 kts 189°
2026-04-29 15:10 52.01887 7.66178 1508 ft 134 kts 176°
2026-04-29 15:11 52.00995 7.65983 1620 ft 123 kts 177°
2026-04-29 15:11 52.00242 7.65691 1780 ft 116 kts 171°
2026-04-29 15:11 51.99422 7.65678 1834 ft 114 kts 168°
2026-04-29 15:11 51.98663 7.65626 2050 ft 108 kts 167°
2026-04-29 15:12 51.97920 7.65529 2384 ft 96 kts 176°
2026-04-29 15:12 51.97485 7.65457 1596 ft 131 kts 182°
2026-04-29 15:12 51.96175 7.64437 1611 ft 141 kts 202°
2026-04-29 15:12 51.95329 7.63782 1776 ft 130 kts 189°
2026-04-29 15:13 51.94514 7.63456 2070 ft 115 kts 179°
2026-04-29 15:13 51.93980 7.63405 2013 ft 122 kts 163°
2026-04-29 15:13 51.93305 7.63905 1753 ft 101 kts 90°
2026-04-29 15:13 51.93792 7.64964 1437 ft 125 kts 44°
2026-04-29 15:14 51.94333 7.65992 1229 ft 118 kts 81°
2026-04-29 15:14 51.94107 7.67204 1312 ft 107 kts 94°
2026-04-29 15:14 51.94188 7.68404 1228 ft 112 kts 76°
2026-04-29 15:14 51.94368 7.69495 1235 ft 89 kts 77°
2026-04-29 15:15 51.94483 7.70353 1203 ft 73 kts 76°
2026-04-29 15:15 51.94584 7.71141 1205 ft 70 kts 81°
2026-04-29 15:15 51.94615 7.71936 1174 ft 68 kts 83°
2026-04-29 15:15 51.94610 7.72634 1059 ft 58 kts 89°
2026-04-29 15:16 51.94603 7.73345 1006 ft 62 kts 87°
2026-04-29 15:16 51.94568 7.74048 818 ft 63 kts 84°
2026-04-29 15:16 51.94562 7.74834 640 ft 77 kts 84°
2026-04-29 15:16 51.94518 7.75737 421 ft 80 kts 86°
2026-04-29 15:17 51.94485 7.76628 231 ft 79 kts 91°
2026-04-29 15:17 51.94453 7.77421 184 ft 57 kts 95°
2026-04-29 15:17 51.94425 7.77865 182 ft 23 kts 101°
2026-04-29 15:17 51.94427 7.77940 182 ft 9 kts 264°
2026-04-29 15:18 51.94451 7.77468 189 ft 70 kts 276°
2026-04-29 15:18 51.94474 7.76810 197 ft 73 kts 285°